SCP
0 0 0 0 0 0 0 0 0 0 0 0 0 0 0 0 0 0 0 0 0 0 0 0 0 0 0 0 0 0 0 0 0 0 0 0 0 0 0 0 0 0 0
0 0 0 0 0 0 0 0 0 0 0 0 0 0 0 0 0 0 0 0 0 0 0 0 0 0 0 0 0 0 0 0 0 0 0 0 0 0 0 0 0 0 0
0 0 0 0 0 0 0 0 0 0 0 0 0 0 0 0 0 0 0 0 0 0 0 0 0 0 0 0 0 0 0 0 0 0 0 0 0 0 0 0 0 0 0
-0 0 0 0 0 0 0 0 0 0 0 0 0 0 0 0 0 0 0 0 0 0 0 0 0 0 0 0 0 0 0 0 0 0 0 0 0 0 0 0 0 0 0
-0 0 0 0 0 0 0 0 0 0 0 0 0 0 0 0 0 0 0 0 0 0 0 0 0 0 0 0 0 0 0 0 0 0 0 0 0 0 0 0 0 0 0
-0 -0 0 0 0 0 0 0 0 0 0 0 0 0 0 0 0 0 0 0 0 0 0 0 0 0 0 0 0 0 0 0 0 0 0 0 0 0 0 0 0 0 0
0 -0 -0 0 0 0 0 0 0 0 0 0 0 0 0 0 0 0 0 0 0 0 0 0 0 0 0 0 0 0 0 0 0 0 0 0 0 0 0 0 0 0 0
0 0 -0 -0 0 0 0 0 0 0 0 0 0 0 0 0 0 0 0 0 0 0 0 0 0 0 0 0 0 0 0 0 0 0 0 0 0 0 0 0 0 0 0
0 0 0 -0 0 0 0 0 0 0 0 0 0 0 0 0 0 0 0 0 0 0 0 0 0 0 0 0 0 0 0 0 0 0 -0 0 0 0 0 0 -0 -0 -0
0 0 0 -0 0 0 0 0 0 0 0 0 0 0 0 0 0 0 0 0 0 0 0 0 0 0 0 0 0 0 0 0 -0 0 0 0 0 0 0 0 -0 0 0
0 0 0 0 0 0 0 0 0 0 0 0 0 0 0 0 0 0 0 0 0 0 0 0 0 0 0 0 0 0 0 0 0 0 0 0 0 0 0 -0 0 0 0
0 0 0 0 0 0 0 0 0 0 0 0 0 0 0 0 0 0 0 0 0 0 0 0 0 0 0 0 0 0 -0 -0 0 0 0 0 0 0 -0 0 0 0 0
0 0 0 0 0 0 0 0 0 0 0 0 0 0 0 0 0 0 0 0 0 0 0 0 0 0 0 0 0 0 0 0 0 0 0 0 0 -0 0 0 0 0 0
0 0 0 0 0 0 0 0 0 0 0 0 0 0 0 0 0 0 0 0 0 0 0 0 0 0 0 0 0 0 0 0 0 0 0 0 -0 0 0 0 0 0 0
0 0 0 0 0 0 0 0 0 0 0 0 0 0 0 0 0 0 0 0 0 0 0 0 0 0 0 0 0 0 0 -0 0 0 0 0 0 0 0 0 0 0 0
0 0 0 0 0 0 0 0 0 0 0 0 0 0 0 0 0 0 0 0 0 0 0 0 0 0 0 0 0 0 0 0 0 -0 -0 -0 0 0 0 0 0 0 0
0 0 0 0 0 0 0 0 0 0 0 0 0 0 0 0 0 0 0 0 0 0 0 0 0 0 0 0 0 0 0 0 0 0 0 0 0 0 0 0 0 0 0
0 0 0 0 0 0 0 0 0 0 0 0 0 0 0 0 0 0 0 0 0 0 0 0 0 0 0 0 0 0 0 0 0 0 0 0 0 0 0 0 0 0 0
0 0 0 0 0 0 0 0 0 0 0 0 0 0 0 0 0 0 0 0 0 0 0 0 0 0 0 0 0 0 0 0 0 0 0 0 0 0 0 0 0 0 0
0 0 0 0 0 0 0 0 0 0 0 0 0 0 0 0 0 0 0 0 0 0 0 0 0 0 0 0 0 0 0 0 0 0 0 0 0 0 0 0 0 0 0
0 0 0 0 0 0 0 0 0 0 0 0 0 0 0 0 0 0 0 0 0 0 0 0 0 0 0 0 0 0 0 0 0 0 0 0 0 0 0 0 0 0 0
0 0 0 0 0 0 0 0 0 0 0 0 0 0 0 0 0 0 0 0 0 0 0 0 0 0 0 0 0 0 0 0 0 0 0 0 0 0 0 0 0 0 0
0 0 0 0 0 0 0 0 0 0 0 0 0 0 0 0 0 0 0 0 0 0 0 0 0 0 0 0 0 0 0 0 0 0 0 0 0 0 0 0 0 0 0
0 0 0 0 0 0 0 0 0 0 0 0 0 0 0 0 0 0 0 0 0 0 0 0 0 0 0 0 0 0 0 0 0 0 0 0 0 0 0 0 0 0 0
0 0 0 0 0 0 0 0 0 0 0 0 0 0 0 0 0 0 0 0 0 0 0 0 0 0 0 0 0 0 0 0 0 0 0 0 0 0 0 0 0 0 0
0 0 0 0 0 0 0 0 0 0 0 0 0 0 0 0 0 0 0 0 0 0 0 0 0 0 0 0 0 0 0 0 0 0 0 0 0 0 0 0 0 0 0
Wind_Speed_500mb
39 47 56 61 69 73 75 74 95 92 85 75 71 69 67 61 54 48 43 36 36 31 29 31 34 34 36 36 37 40 44 50 67 68 60 60 62 63 64 61 61 67 64
36 41 48 54 61 70 73 70 83 90 81 75 72 70 65 61 55 49 43 37 36 34 31 30 34 32 34 35 37 41 46 51 62 77 70 67 63 62 64 63 67 75 80
39 41 43 51 58 66 70 69 72 84 81 76 72 70 64 60 55 48 43 38 35 32 31 32 33 32 35 36 39 43 47 52 58 69 79 72 71 63 67 76 78 80 74
40 41 43 47 54 60 66 68 69 80 82 76 72 68 64 59 54 48 43 38 34 33 34 35 33 32 35 37 39 44 50 56 58 64 75 75 72 77 68 84 91 67 83
45 39 41 43 50 54 63 69 71 79 79 75 68 65 62 59 55 51 46 40 35 31 31 31 31 33 38 40 43 49 47 53 63 63 74 73 74 69 78 88 71 90 76
47 44 42 43 49 55 61 70 73 80 75 71 68 66 64 58 55 48 43 39 36 33 30 29 30 33 35 39 43 43 47 49 55 64 72 73 79 85 90 88 91 79 78
58 47 42 44 50 56 60 69 80 90 78 75 69 65 63 58 51 45 42 38 31 29 29 28 30 30 36 33 37 40 43 51 56 65 75 83 90 93 93 99 87 81 77
64 52 42 47 50 56 62 73 73 80 83 75 66 62 60 54 47 43 40 37 30 30 28 28 30 32 30 29 32 42 50 52 52 58 68 83 86 91 94 87 87 83 58
79 71 54 48 52 60 69 77 78 72 74 70 63 62 59 53 45 42 39 32 30 29 27 28 30 30 27 28 34 45 51 52 49 58 66 77 80 75 68 56 40 22 30
73 78 56 47 69 79 72 81 87 84 78 70 61 60 59 48 44 42 39 31 29 25 25 27 30 26 27 29 32 42 50 51 60 65 74 74 63 60 28 17 16 17 23
74 76 50 61 79 72 62 74 86 86 78 69 61 57 54 45 43 42 38 33 26 24 24 24 21 27 27 28 34 38 44 54 59 53 67 70 62 45 21 7 5 5 13
82 66 50 59 74 51 59 75 79 87 89 70 59 51 46 43 43 39 37 34 30 27 25 25 23 29 26 29 38 40 46 50 44 59 64 65 59 40 18 12 4 2 12
66 49 33 49 55 57 69 75 80 90 94 74 64 51 47 41 39 39 34 34 35 32 28 28 33 29 29 29 34 40 42 40 41 50 62 61 49 35 22 14 10 4 2
46 26 42 52 51 52 66 72 79 90 86 81 61 47 42 41 39 35 35 34 35 36 29 25 25 28 31 30 30 30 31 37 38 47 56 54 42 29 22 15 10 8 15
26 30 35 30 45 55 64 73 76 82 90 83 63 48 43 39 35 33 29 26 22 20 26 20 22 20 22 20 22 25 30 35 37 44 50 49 40 23 13 11 8 7 36
17 28 39 45 51 59 64 60 66 81 72 61 50 43 40 35 32 26 28 30 32 27 21 21 21 18 20 19 21 23 27 33 33 40 43 45 37 23 13 8 6 23 56
13 19 37 38 49 65 77 84 79 65 56 47 43 39 34 27 20 24 26 28 28 28 22 20 20 16 17 18 19 22 26 31 32 37 38 42 33 22 7 6 14 33 43
10 27 43 50 57 58 68 84 81 72 58 45 35 31 24 22 25 21 23 24 21 22 20 17 15 12 11 17 19 21 24 26 28 33 33 40 30 23 14 3 20 27 41
24 37 45 54 59 71 79 74 63 49 41 34 30 27 26 20 17 22 23 19 20 19 16 13 12 11 13 17 18 20 26 26 25 29 29 32 35 22 17 9 14 29 35
39 49 64 66 65 63 57 52 47 39 35 31 26 23 21 24 24 19 20 21 21 17 15 13 13 13 14 16 17 20 24 23 27 30 28 28 34 29 18 16 20 36 45
31 37 31 31 37 41 38 32 28 25 21 19 19 27 31 26 16 16 19 20 18 15 12 13 13 15 15 17 18 19 19 24 26 33 33 29 34 37 21 20 21 48 49
51 42 43 35 34 35 35 31 25 20 19 24 28 30 30 21 18 18 19 19 17 12 12 13 15 15 16 17 18 19 21 24 25 35 37 33 33 33 27 22 26 53 51
50 50 45 39 32 29 27 24 25 28 28 25 22 18 18 19 18 18 19 20 19 15 13 14 17 16 17 18 19 22 25 27 30 35 40 39 38 39 37 22 33 50 57
36 31 31 32 30 28 29 28 25 25 20 17 16 16 15 14 13 19 20 20 18 16 16 17 19 20 18 18 18 23 28 28 32 40 43 42 40 42 41 26 39 55 58
33 33 31 31 32 28 26 20 18 17 17 16 14 14 17 15 15 18 21 21 18 15 14 16 15 16 18 19 21 26 27 30 32 39 45 44 42 45 36 24 37 56 68
28 29 29 26 21 18 17 19 18 17 15 13 9 6 7 12 15 17 14 15 16 13 12 11 11 14 16 19 22 28 28 31 36 39 43 38 41 40 31 24 33 52 74
Wind_Direction_500mb
268 246 235 228 222 219 215 212 222 220 219 219 219 217 217 215 216 218 224 228 234 236 244 262 271 274 275 276 277 278 281 284 286 291 292 293 291 290 287 286 285 285 282
282 254 240 229 219 216 215 211 215 218 217 219 216 215 214 214 214 217 221 225 232 242 251 262 273 276 275 277 279 282 285 286 288 292 294 294 294 296 292 290 292 296 295
296 266 243 228 222 216 212 208 207 213 215 214 214 212 210 212 214 217 223 226 231 240 253 264 271 273 275 279 282 283 287 289 288 290 294 296 298 298 297 292 304 303 300
309 273 252 234 224 218 211 205 200 207 213 212 211 210 209 212 215 218 223 226 232 246 259 270 272 271 276 282 283 288 291 291 290 291 291 297 296 300 292 301 307 304 299
312 289 265 245 229 217 211 204 199 204 209 208 205 206 210 211 213 218 225 231 236 246 259 266 271 271 274 281 284 288 289 287 294 292 293 296 296 296 297 306 288 304 303
309 305 277 254 232 219 209 204 200 202 200 200 201 205 206 209 215 222 226 233 241 251 259 265 271 276 283 286 285 284 286 291 291 295 295 294 294 295 299 297 295 290 288
307 300 284 258 240 223 208 204 200 203 198 199 199 201 205 210 218 220 226 233 238 246 255 266 272 279 285 288 289 293 295 296 293 295 291 294 298 302 302 298 290 287 283
307 303 289 260 240 227 211 202 201 198 198 197 195 197 202 207 215 220 229 237 240 249 257 263 272 283 285 286 295 298 301 300 299 298 294 298 306 304 296 293 291 286 281
309 300 292 255 237 226 213 203 197 194 193 194 193 196 200 207 213 220 227 230 238 250 260 262 273 279 279 292 299 302 302 303 305 298 299 309 308 307 307 305 291 246 246
296 293 285 266 239 222 211 202 196 193 194 192 191 197 203 206 214 219 227 226 240 252 261 270 283 278 275 297 303 306 303 308 310 311 313 320 324 327 328 293 270 198 203
296 286 273 243 227 217 205 201 193 191 188 191 190 193 200 202 214 221 229 227 240 250 260 272 273 271 286 298 301 307 301 309 313 310 321 334 334 344 12 27 103 194 231
296 285 254 225 216 206 200 195 190 187 191 185 184 185 194 201 212 223 231 239 238 248 262 271 271 279 296 298 307 312 311 319 313 319 332 338 341 359 40 49 100 310 293
296 279 242 209 202 196 194 191 182 187 191 180 178 183 191 200 213 226 231 240 251 249 262 260 261 280 289 302 311 317 319 318 317 329 336 339 345 353 8 37 8 206 297
288 259 223 197 186 190 191 187 181 180 179 180 177 180 190 204 213 222 228 240 247 256 266 268 272 273 283 300 317 317 317 319 326 337 339 342 350 355 12 43 4 44 125
274 227 209 180 184 186 187 181 178 182 191 189 187 185 192 202 210 222 230 231 239 242 243 264 271 277 281 298 310 314 317 321 325 341 345 345 351 353 42 56 110 150 150
253 214 181 179 175 177 168 160 171 189 187 190 192 196 197 209 219 226 232 242 239 244 256 262 264 271 280 299 307 311 317 323 325 339 348 347 348 350 13 84 129 162 153
238 214 173 171 167 166 158 163 161 161 167 174 183 195 204 210 213 230 236 232 240 251 254 255 261 266 279 295 304 308 315 322 321 334 343 353 344 341 323 79 147 177 159
137 159 164 157 158 154 146 159 158 160 162 170 184 194 197 212 225 227 228 240 249 251 238 246 259 258 276 300 304 304 310 319 321 328 339 351 351 333 310 280 155 182 186
111 127 135 137 140 138 146 149 150 149 159 169 181 195 213 218 219 222 235 245 240 240 244 247 253 269 282 302 304 309 315 313 318 323 338 345 354 330 310 257 177 203 199
107 113 127 131 132 133 137 142 147 158 173 179 192 207 208 212 214 227 239 236 236 239 242 252 258 271 284 297 302 315 320 315 315 319 330 338 349 344 296 243 180 198 203
167 152 138 131 130 132 134 140 151 164 172 186 190 214 211 208 208 224 224 224 232 237 243 253 267 280 283 283 296 307 314 312 312 314 322 329 339 345 312 245 200 184 209
172 161 149 146 137 140 148 164 173 179 190 192 196 205 211 216 221 215 215 225 238 232 237 259 272 285 286 279 282 294 304 310 310 311 314 316 324 335 333 253 208 189 208
118 121 122 129 141 157 166 176 176 177 178 182 187 193 206 213 213 215 220 229 233 238 251 267 279 287 284 283 281 287 299 305 306 307 310 310 315 324 329 269 216 183 202
130 142 149 160 163 161 162 165 169 169 167 171 182 190 207 221 220 217 218 227 236 245 258 271 280 277 279 284 286 292 302 301 296 301 305 306 306 315 319 269 220 195 194
148 157 164 159 157 155 158 156 153 157 160 170 181 207 231 234 217 219 225 231 237 249 261 265 266 279 278 279 288 294 293 297 295 301 297 303 302 307 305 263 223 203 192
145 154 149 147 149 146 141 142 147 153 156 163 168 188 200 206 218 226 231 234 237 245 254 267 275 274 275 284 287 287 289 294 299 291 294 298 303 303 295 256 227 205 202
Wind_Speed_850mb
39 47 56 61 69 73 75 74 95 92 85 75 71 69 67 61 54 48 43 36 36 31 29 31 34 34 36 36 37 40 44 50 67 68 60 60 62 63 64 61 61 67 64
36 41 48 54 61 70 73 70 83 90 81 75 72 70 65 61 55 49 43 37 36 34 31 30 34 32 34 35 37 41 46 51 62 77 70 67 63 62 64 63 67 75 80
39 41 43 51 58 66 70 69 72 84 81 76 72 70 64 60 55 48 43 38 35 32 31 32 33 32 35 36 39 43 47 52 58 69 79 72 71 63 67 76 78 80 74
40 41 43 47 54 60 66 68 69 80 82 76 72 68 64 59 54 48 43 38 34 33 34 35 33 32 35 37 39 44 50 56 58 64 75 75 72 77 68 84 91 67 83
45 39 41 43 50 54 63 69 71 79 79 75 68 65 62 59 55 51 46 40 35 31 31 31 31 33 38 40 43 49 47 53 63 63 74 73 74 69 78 88 71 90 76
47 44 42 43 49 55 61 70 73 80 75 71 68 66 64 58 55 48 43 39 36 33 30 29 30 33 35 39 43 43 47 49 55 64 72 73 79 85 90 88 91 79 78
58 47 42 44 50 56 60 69 80 90 78 75 69 65 63 58 51 45 42 38 31 29 29 28 30 30 36 33 37 40 43 51 56 65 75 83 90 93 93 99 87 81 77
64 52 42 47 50 56 62 73 73 80 83 75 66 62 60 54 47 43 40 37 30 30 28 28 30 32 30 29 32 42 50 52 52 58 68 83 86 91 94 87 87 83 58
79 71 54 48 52 60 69 77 78 72 74 70 63 62 59 53 45 42 39 32 30 29 27 28 30 30 27 28 34 45 51 52 49 58 66 77 80 75 68 56 40 22 30
73 78 56 47 69 79 72 81 87 84 78 70 61 60 59 48 44 42 39 31 29 25 25 27 30 26 27 29 32 42 50 51 60 65 74 74 63 60 28 17 16 17 23
74 76 50 61 79 72 62 74 86 86 78 69 61 57 54 45 43 42 38 33 26 24 24 24 21 27 27 28 34 38 44 54 59 53 67 70 62 45 21 7 5 5 13
82 66 50 59 74 51 59 75 79 87 89 70 59 51 46 43 43 39 37 34 30 27 25 25 23 29 26 29 38 40 46 50 44 59 64 65 59 40 18 12 4 2 12
66 49 33 49 55 57 69 75 80 90 94 74 64 51 47 41 39 39 34 34 35 32 28 28 33 29 29 29 34 40 42 40 41 50 62 61 49 35 22 14 10 4 2
46 26 42 52 51 52 66 72 79 90 86 81 61 47 42 41 39 35 35 34 35 36 29 25 25 28 31 30 30 30 31 37 38 47 56 54 42 29 22 15 10 8 15
26 30 35 30 45 55 64 73 76 82 90 83 63 48 43 39 35 33 29 26 22 20 26 20 22 20 22 20 22 25 30 35 37 44 50 49 40 23 13 11 8 7 36
17 28 39 45 51 59 64 60 66 81 72 61 50 43 40 35 32 26 28 30 32 27 21 21 21 18 20 19 21 23 27 33 33 40 43 45 37 23 13 8 6 23 56
13 19 37 38 49 65 77 84 79 65 56 47 43 39 34 27 20 24 26 28 28 28 22 20 20 16 17 18 19 22 26 31 32 37 38 42 33 22 7 6 14 33 43
10 27 43 50 57 58 68 84 81 72 58 45 35 31 24 22 25 21 23 24 21 22 20 17 15 12 11 17 19 21 24 26 28 33 33 40 30 23 14 3 20 27 41
24 37 45 54 59 71 79 74 63 49 41 34 30 27 26 20 17 22 23 19 20 19 16 13 12 11 13 17 18 20 26 26 25 29 29 32 35 22 17 9 14 29 35
39 49 64 66 65 63 57 52 47 39 35 31 26 23 21 24 24 19 20 21 21 17 15 13 13 13 14 16 17 20 24 23 27 30 28 28 34 29 18 16 20 36 45
31 37 31 31 37 41 38 32 28 25 21 19 19 27 31 26 16 16 19 20 18 15 12 13 13 15 15 17 18 19 19 24 26 33 33 29 34 37 21 20 21 48 49
51 42 43 35 34 35 35 31 25 20 19 24 28 30 30 21 18 18 19 19 17 12 12 13 15 15 16 17 18 19 21 24 25 35 37 33 33 33 27 22 26 53 51
50 50 45 39 32 29 27 24 25 28 28 25 22 18 18 19 18 18 19 20 19 15 13 14 17 16 17 18 19 22 25 27 30 35 40 39 38 39 37 22 33 50 57
36 31 31 32 30 28 29 28 25 25 20 17 16 16 15 14 13 19 20 20 18 16 16 17 19 20 18 18 18 23 28 28 32 40 43 42 40 42 41 26 39 55 58
33 33 31 31 32 28 26 20 18 17 17 16 14 14 17 15 15 18 21 21 18 15 14 16 15 16 18 19 21 26 27 30 32 39 45 44 42 45 36 24 37 56 68
28 29 29 26 21 18 17 19 18 17 15 13 9 6 7 12 15 17 14 15 16 13 12 11 11 14 16 19 22 28 28 31 36 39 43 38 41 40 31 24 33 52 74
Wind_Direction_850mb
268 246 235 228 222 219 215 212 222 220 219 219 219 217 217 215 216 218 224 228 234 236 244 262 271 274 275 276 277 278 281 284 286 291 292 293 291 290 287 286 285 285 282
282 254 240 229 219 216 215 211 215 218 217 219 216 215 214 214 214 217 221 225 232 242 251 262 273 276 275 277 279 282 285 286 288 292 294 294 294 296 292 290 292 296 295
296 266 243 228 222 216 212 208 207 213 215 214 214 212 210 212 214 217 223 226 231 240 253 264 271 273 275 279 282 283 287 289 288 290 294 296 298 298 297 292 304 303 300
309 273 252 234 224 218 211 205 200 207 213 212 211 210 209 212 215 218 223 226 232 246 259 270 272 271 276 282 283 288 291 291 290 291 291 297 296 300 292 301 307 304 299
312 289 265 245 229 217 211 204 199 204 209 208 205 206 210 211 213 218 225 231 236 246 259 266 271 271 274 281 284 288 289 287 294 292 293 296 296 296 297 306 288 304 303
309 305 277 254 232 219 209 204 200 202 200 200 201 205 206 209 215 222 226 233 241 251 259 265 271 276 283 286 285 284 286 291 291 295 295 294 294 295 299 297 295 290 288
307 300 284 258 240 223 208 204 200 203 198 199 199 201 205 210 218 220 226 233 238 246 255 266 272 279 285 288 289 293 295 296 293 295 291 294 298 302 302 298 290 287 283
307 303 289 260 240 227 211 202 201 198 198 197 195 197 202 207 215 220 229 237 240 249 257 263 272 283 285 286 295 298 301 300 299 298 294 298 306 304 296 293 291 286 281
309 300 292 255 237 226 213 203 197 194 193 194 193 196 200 207 213 220 227 230 238 250 260 262 273 279 279 292 299 302 302 303 305 298 299 309 308 307 307 305 291 246 246
296 293 285 266 239 222 211 202 196 193 194 192 191 197 203 206 214 219 227 226 240 252 261 270 283 278 275 297 303 306 303 308 310 311 313 320 324 327 328 293 270 198 203
296 286 273 243 227 217 205 201 193 191 188 191 190 193 200 202 214 221 229 227 240 250 260 272 273 271 286 298 301 307 301 309 313 310 321 334 334 344 12 27 103 194 231
296 285 254 225 216 206 200 195 190 187 191 185 184 185 194 201 212 223 231 239 238 248 262 271 271 279 296 298 307 312 311 319 313 319 332 338 341 359 40 49 100 310 293
296 279 242 209 202 196 194 191 182 187 191 180 178 183 191 200 213 226 231 240 251 249 262 260 261 280 289 302 311 317 319 318 317 329 336 339 345 353 8 37 8 206 297
288 259 223 197 186 190 191 187 181 180 179 180 177 180 190 204 213 222 228 240 247 256 266 268 272 273 283 300 317 317 317 319 326 337 339 342 350 355 12 43 4 44 125
274 227 209 180 184 186 187 181 178 182 191 189 187 185 192 202 210 222 230 231 239 242 243 264 271 277 281 298 310 314 317 321 325 341 345 345 351 353 42 56 110 150 150
253 214 181 179 175 177 168 160 171 189 187 190 192 196 197 209 219 226 232 242 239 244 256 262 264 271 280 299 307 311 317 323 325 339 348 347 348 350 13 84 129 162 153
238 214 173 171 167 166 158 163 161 161 167 174 183 195 204 210 213 230 236 232 240 251 254 255 261 266 279 295 304 308 315 322 321 334 343 353 344 341 323 79 147 177 159
137 159 164 157 158 154 146 159 158 160 162 170 184 194 197 212 225 227 228 240 249 251 238 246 259 258 276 300 304 304 310 319 321 328 339 351 351 333 310 280 155 182 186
111 127 135 137 140 138 146 149 150 149 159 169 181 195 213 218 219 222 235 245 240 240 244 247 253 269 282 302 304 309 315 313 318 323 338 345 354 330 310 257 177 203 199
107 113 127 131 132 133 137 142 147 158 173 179 192 207 208 212 214 227 239 236 236 239 242 252 258 271 284 297 302 315 320 315 315 319 330 338 349 344 296 243 180 198 203
167 152 138 131 130 132 134 140 151 164 172 186 190 214 211 208 208 224 224 224 232 237 243 253 267 280 283 283 296 307 314 312 312 314 322 329 339 345 312 245 200 184 209
172 161 149 146 137 140 148 164 173 179 190 192 196 205 211 216 221 215 215 225 238 232 237 259 272 285 286 279 282 294 304 310 310 311 314 316 324 335 333 253 208 189 208
118 121 122 129 141 157 166 176 176 177 178 182 187 193 206 213 213 215 220 229 233 238 251 267 279 287 284 283 281 287 299 305 306 307 310 310 315 324 329 269 216 183 202
130 142 149 160 163 161 162 165 169 169 167 171 182 190 207 221 220 217 218 227 236 245 258 271 280 277 279 284 286 292 302 301 296 301 305 306 306 315 319 269 220 195 194
148 157 164 159 157 155 158 156 153 157 160 170 181 207 231 234 217 219 225 231 237 249 261 265 266 279 278 279 288 294 293 297 295 301 297 303 302 307 305 263 223 203 192
145 154 149 147 149 146 141 142 147 153 156 163 168 188 200 206 218 226 231 234 237 245 254 267 275 274 275 284 287 287 289 294 299 291 294 298 303 303 295 256 227 205 202